DW4321 Weather Reports


Display with metric or nautical units.
time (UTC)temp
F
wind
direction
speed
MPH
gust
MPH
rain 1hr
in
rain 24hr
in
rain mn
in
humidity
%
barometer
mb
20260509064547 49 0 0.0 0.0 0.00 0.04 0.00 87 1010.7
20260509063044 49 0 0.0 2.0 0.00 0.04 0.00 87 1011.0
20260509061548 49 0 0.0 1.0 0.00 0.04 0.00 87 1011.2
20260509054602 50 0 0.0 0.0 0.00 0.04 0.00 87 1011.4
20260509053043 50 0 0.0 0.0 0.00 0.04 0.00 87 1011.5
20260509051541 50 0 0.0 1.0 0.00 0.04 0.00 86 1011.9
20260509050051 50 0 0.0 1.0 0.00 0.04 0.00 86 1012.2
20260509044546 50 0 0.0 0.0 0.00 0.04 0.00 85 1012.2
20260509043048 50 0 0.0 0.0 0.00 0.04 0.00 85 1012.0
20260509041543 50 0 0.0 0.0 0.00 0.04 0.00 85 1012.0
20260509040052 51 0 0.0 0.0 0.00 0.04 0.00 84 1012.2
20260509034555 51 0 0.0 1.0 0.00 0.04 0.04 83 1012.4
20260509033039 51 0 0.0 1.0 0.00 0.04 0.04 83 1012.3
20260509031557 51 0 0.0 0.0 0.00 0.04 0.04 82 1012.1
20260509030043 51 0 0.0 0.0 0.00 0.04 0.04 81 1012.0
20260509024542 51 0 0.0 1.0 0.00 0.05 0.04 81 1012.2
20260509023053 51 0 0.0 0.0 0.00 0.05 0.04 80 1012.3
20260509021545 51 0 0.0 1.0 0.00 0.05 0.04 79 1012.4
20260509020042 52 0 0.0 1.0 0.00 0.05 0.04 77 1012.1
20260509014545 53 157 1.0 6.0 0.00 0.05 0.04 75 1011.7
20260509013106 53 0 0.0 8.0 0.00 0.05 0.04 72 1012.1
20260509011541 53 0 0.0 4.0 0.00 0.05 0.04 70 1012.0
20260509010042 54 257 0.0 2.0 0.00 0.05 0.04 69 1011.6
20260509004541 54 255 1.0 6.0 0.00 0.05 0.04 67 1011.3
20260509003040 55 0 0.0 9.0 0.00 0.05 0.04 67 1011.5
20260509001546 55 280 2.0 9.0 0.00 0.05 0.04 66 1011.4
20260509000043 55 0 1.0 8.0 0.00 0.05 0.04 67 1011.3
20260508234542 55 244 1.0 13.0 0.00 0.05 0.04 67 1011.2
20260508233045 55 242 1.0 13.0 0.00 0.05 0.04 65 1011.1
20260508231547 56 261 3.0 15.0 0.00 0.05 0.04 66 1011.1
20260508230052 56 243 4.0 13.0 0.00 0.05 0.04 66 1010.8
20260508224600 57 0 7.0 15.0 0.00 0.05 0.04 66 1010.7
20260508223044 57 161 1.0 12.0 0.00 0.05 0.04 68 1010.7
20260508221554 56 0 3.0 10.0 0.00 0.05 0.04 72 1010.9
20260508220048 54 262 1.0 5.0 0.00 0.05 0.04 78 1011.1
20260508214541 53 0 0.0 5.0 0.00 0.05 0.04 79 1011.1
20260508213056 53 284 0.0 4.0 0.02 0.05 0.04 79 1011.0
20260508211545 52 285 2.0 6.0 0.02 0.05 0.04 80 1010.9
20260508210043 53 0 0.0 7.0 0.02 0.05 0.04 80 1011.2
20260508204543 53 317 1.0 15.0 0.02 0.05 0.04 77 1011.4
20260508203045 56 230 9.0 24.0 0.00 0.03 0.02 64 1011.7
20260508201547 58 177 4.0 15.0 0.00 0.03 0.02 55 1010.7
20260508200052 58 246 1.0 6.0 0.00 0.03 0.02 60 1010.9
20260508194546 57 347 0.0 2.0 0.00 0.03 0.02 63 1010.9
20260508193115 57 346 0.0 3.0 0.01 0.03 0.02 62 1011.0
20260508191542 57 0 0.0 4.0 0.01 0.03 0.02 61 1010.9
20260508190046 57 346 1.0 9.0 0.01 0.03 0.02 62 1010.9
20260508184609 57 16 2.0 7.0 0.01 0.03 0.02 68 1011.1
20260508183046 57 30 4.0 10.0 0.00 0.02 0.01 59 1011.6
20260508181542 58 337 2.0 10.0 0.00 0.02 0.01 55 1011.2
20260508180053 58 315 6.0 16.0 0.01 0.02 0.01 54 1011.5
20260508174557 57 269 5.0 15.0 0.01 0.02 0.01 61 1011.5
20260508173043 55 323 5.0 12.0 0.01 0.02 0.01 66 1011.9
20260508171610 56 328 7.0 17.0 0.01 0.02 0.01 62 1012.1
20260508170046 57 314 4.0 13.0 0.00 0.01 0.00 52 1012.0
20260508164544 57 5 5.0 13.0 0.00 0.01 0.00 51 1011.9
20260508163041 58 272 5.0 13.0 0.00 0.01 0.00 50 1012.1
20260508161551 57 296 4.0 14.0 0.00 0.01 0.00 51 1012.1
20260508160048 58 267 4.0 14.0 0.00 0.01 0.00 51 1012.2
20260508154545 58 245 6.0 18.0 0.00 0.01 0.00 52 1012.2
20260508153047 57 257 5.0 18.0 0.00 0.01 0.00 52 1012.1
20260508151553 57 261 9.0 21.0 0.00 0.01 0.00 51 1012.1
20260508150042 57 244 6.0 23.0 0.00 0.01 0.00 53 1011.9
20260508144543 56 246 5.0 24.0 0.00 0.01 0.00 53 1011.9
20260508143045 55 286 6.0 15.0 0.00 0.01 0.00 54 1011.9
20260508141545 54 264 3.0 12.0 0.00 0.01 0.00 57 1012.1
20260508140049 53 187 2.0 9.0 0.00 0.01 0.00 59 1012.3
20260508134551 51 188 2.0 13.0 0.00 0.01 0.00 61 1012.3
20260508133100 50 160 4.0 9.0 0.00 0.01 0.00 65 1012.5
20260508131548 49 191 2.0 12.0 0.00 0.01 0.00 67 1012.7
20260508130044 47 169 1.0 12.0 0.00 0.01 0.00 70 1012.9
20260508124543 45 173 0.0 10.0 0.00 0.01 0.00 73 1012.8
20260508123052 43 183 0.0 2.0 0.00 0.01 0.00 77 1012.8
20260508121541 42 0 0.0 1.0 0.00 0.01 0.00 78 1012.8
20260508120053 42 0 0.0 6.0 0.00 0.01 0.00 78 1012.7
20260508114547 41 161 1.0 5.0 0.00 0.01 0.00 82 1013.0
20260508113054 40 0 0.0 1.0 0.00 0.01 0.00 84 1013.2
20260508111543 39 0 0.0 1.0 0.00 0.01 0.00 86 1013.1
20260508110044 38 0 0.0 1.0 0.00 0.01 0.00 86 1013.0
20260508104539 38 0 0.0 0.0 0.00 0.01 0.00 86 1012.9
20260508103045 38 0 0.0 1.0 0.00 0.01 0.00 87 1012.6
20260508101548 37 0 0.0 1.0 0.00 0.01 0.00 87 1012.5
20260508100044 37 0 0.0 1.0 0.00 0.01 0.00 86 1012.3
20260508094542 37 0 0.0 1.0 0.00 0.01 0.00 86 1012.3
20260508093043 37 0 0.0 1.0 0.00 0.01 0.00 86 1012.1
20260508091605 38 0 0.0 1.0 0.00 0.01 0.00 85 1012.2
20260508090054 38 0 0.0 0.0 0.00 0.01 0.00 85 1012.1
20260508084543 38 0 0.0 1.0 0.00 0.01 0.00 85 1012.1
20260508083043 38 0 0.0 1.0 0.00 0.01 0.00 86 1012.2
20260508081546 38 0 0.0 0.0 0.00 0.01 0.00 87 1012.3
20260508080044 38 0 0.0 0.0 0.00 0.01 0.00 86 1012.2
20260508074543 38 0 0.0 1.0 0.00 0.01 0.00 87 1012.3
20260508073050 39 0 0.0 0.0 0.00 0.01 0.00 87 1012.2
20260508071547 39 0 0.0 1.0 0.00 0.01 0.00 86 1012.2
20260508070047 39 0 0.0 1.0 0.00 0.01 0.00 86 1012.5